Location: Fort Wayne
(41.1310°N, 85.1290°W)
Time: 09:10:52
(UTC-04:00)

Cosmos 1980 - Visible Passes

Search period start: 25 August 2016 00:00
Search period end: 04 September 2016 00:00
Orbit: 840 x 846 km, 71.0° (Epoch: 24 August)

Date Brightness Start Highest point End Pass type
(mag) Time Alt. Az. Time Alt. Az. Time Alt. Az.
25 Aug 6.2 01:14:37 11° NE 01:14:37 11° NE 01:14:59 10° NE visible
25 Aug 5.1 02:56:27 34° N 02:56:27 34° N 02:59:53 10° NNE visible
26 Aug 5.2 02:42:14 31° N 02:42:14 31° N 02:45:21 10° NNE visible
27 Aug 5.4 02:27:59 29° N 02:27:59 29° N 02:30:50 10° NNE visible
28 Aug 5.5 02:13:43 27° N 02:13:43 27° N 02:16:19 10° NNE visible
28 Aug 6.1 03:55:55 10° NW 03:56:06 10° NW 03:56:18 10° NW visible
29 Aug 5.6 01:59:25 25° N 01:59:25 25° N 02:01:47 10° NNE visible
29 Aug 6.2 03:41:15 10° NW 03:41:31 10° NW 03:42:33 10° NNW visible
30 Aug 5.7 01:45:06 24° N 01:45:06 24° N 01:47:15 10° NNE visible
30 Aug 6.2 03:26:57 11° NW 03:26:57 11° NW 03:28:22 10° NNW visible
31 Aug 5.8 01:30:46 22° NNE 01:30:46 22° NNE 01:32:43 10° NNE visible
31 Aug 6.2 03:12:36 11° NW 03:12:36 11° NW 03:14:05 10° NNW visible
01 Sep 5.9 01:16:25 21° NNE 01:16:25 21° NNE 01:18:11 10° NNE visible
01 Sep 6.2 02:58:14 12° NW 02:58:14 12° NW 02:59:46 10° NNW visible
02 Sep 5.9 01:02:01 20° NNE 01:02:01 20° NNE 01:03:40 10° NNE visible
02 Sep 6.2 02:43:51 12° NW 02:43:51 12° NW 02:45:24 10° NNW visible
03 Sep 5.9 00:47:37 19° NNE 00:47:37 19° NNE 00:49:07 10° NNE visible
03 Sep 6.3 02:29:27 12° NW 02:29:27 12° NW 02:31:02 10° NNW visible
